Torna al catalogo

COSMOS 827

AttivoMilitareLEO
NORAD 8891·PAYLOAD·🇷🇺 Russia

Lanciato Jun 15, 1976 da Plesetsk Cosmodrome

Loading…

Prossimi Passaggi (prossime 24 ore)

TLE

AggiornatoSource: Space-Track

Epoca: Sep 13, 2026, 10:15 UTC

1 08891U 76054C   26256.42770295 -.00000024  00000-0 -50188-4 0  9999
2 08891  74.0039  15.5209 0048386 146.8725 288.3884 12.53310511716608

Traccia COSMOS 827 in tempo reale con AllMySat

Download on the App Store